Location: Macksville High School
(37.9611°N, 99.9654°W)
Time: 19:17:40
(UTC+00:00)

Cosmos 1939 Rocket - Pass Details

Date: 17 January 2021
Orbit: 531 x 585 km, 97.4° (Epoch: 26 February)

Event Time Altitude Azimuth Distance (km) Brightness Sun altitude
Rises 13:22:19 0° 13° (NNE) 2,737 6.3 -6.5°
Reaches altitude 10° 13:24:29 10° 15° (NNE) 1,829 5.4 -6.1°
Maximum altitude 13:28:26 76° 102° (ESE) 564 3.1 -5.4°
Drops below altitude 10° 13:32:17 10° 188° (S) 1,788 5.6 -4.7°
Sets 13:34:23 0° 189° (S) 2,668 6.5 -4.3°
